Theta_e
341 342 342 341 341 341 340 339 339 339 339 339 339 339 339 339 339 339 340 341 341 341 341 340 341 341 342 342 342 342 341 341 340 340 339 339 339 338 338 337 337 337 338 337 337 335 333 329 324 320 321 321 321 321 322 324 324 323 322 324 325 326 325 334 339 341 339 339 339 340 340 340 340 341 342 342 343 343 342 342 343 344 343 342 342 342 343 344 344 344 343 342 341 342 342 343 343 342 341 342 342 343 342
341 341 341 341 341 341 340 340 340 340 340 340 339 339 339 340 340 341 342 342 342 342 341 342 342 342 342 342 342 341 341 340 339 339 338 338 338 337 337 337 336 337 337 337 336 335 333 327 323 321 322 323 323 323 323 322 321 321 322 325 326 326 326 335 338 338 338 339 339 339 340 340 341 342 343 342 342 341 341 342 343 343 344 342 342 342 343 344 343 343 341 342 341 342 343 343 344 343 343 343 343 343 342
341 341 341 340 340 340 340 340 340 340 340 340 340 340 340 340 341 342 343 343 343 343 342 342 342 342 341 341 341 340 339 339 338 338 337 337 336 336 336 335 336 336 336 336 334 333 332 328 323 320 321 321 321 321 320 320 320 321 323 325 324 324 327 335 337 337 337 338 339 339 340 341 341 342 343 342 341 340 340 342 343 344 342 341 341 341 343 343 343 342 340 341 341 342 343 342 343 343 343 343 343 343 343
341 341 340 340 340 340 340 340 340 340 340 340 340 340 340 341 341 342 344 342 342 343 343 342 342 341 341 340 339 338 338 337 337 336 336 336 335 335 334 334 335 335 335 334 333 330 327 326 323 320 319 319 319 319 319 320 321 322 322 323 321 323 333 336 337 336 337 338 339 339 339 340 340 341 341 340 340 340 341 341 341 342 341 340 341 341 343 343 341 341 341 341 342 342 342 342 341 341 342 342 342 342 342
340 340 340 339 339 339 339 339 340 340 339 341 340 341 341 341 341 342 343 342 342 341 341 341 341 340 339 338 337 336 336 336 335 335 334 334 334 334 333 333 334 334 334 332 331 328 323 323 320 318 317 317 317 317 317 320 321 320 318 317 319 325 335 336 336 336 337 337 338 339 339 339 340 339 339 339 339 340 341 340 340 340 340 340 341 342 344 343 342 341 341 342 342 342 342 342 342 342 342 342 343 343 343
340 340 339 339 338 338 338 339 339 339 340 341 342 342 341 341 341 342 342 342 341 341 340 339 339 338 337 336 335 335 334 334 334 334 333 332 332 332 332 332 333 333 333 332 329 326 321 317 315 315 315 315 314 314 314 317 317 315 314 314 320 329 335 335 335 336 336 337 337 338 339 339 339 339 338 338 339 339 340 340 339 339 338 340 341 342 343 343 343 342 342 342 342 342 342 342 342 342 344 343 343 343 343
341 340 340 339 338 338 338 338 339 339 341 342 343 342 342 342 341 341 342 341 340 340 339 338 337 336 335 334 334 334 334 333 333 332 331 331 330 330 331 331 332 333 333 331 329 326 320 315 314 314 312 312 312 312 312 315 315 314 313 313 322 333 334 334 335 335 335 336 337 337 338 338 338 338 338 338 338 338 338 338 338 338 338 338 339 340 341 342 342 343 343 343 343 343 342 342 342 342 342 342 343 342 342
341 341 341 340 339 339 338 338 339 339 341 342 343 343 342 342 341 341 341 341 340 339 337 336 335 335 334 334 333 333 333 333 331 331 330 330 330 330 330 331 332 332 332 331 329 326 323 316 314 313 311 311 312 313 312 312 312 312 311 314 322 331 333 333 334 334 335 335 335 337 337 338 337 337 337 337 337 338 337 337 336 336 337 337 338 339 339 341 342 342 343 342 342 341 341 340 340 340 340 340 341 340 340
341 341 340 340 340 340 339 339 339 340 341 343 342 342 341 341 341 340 340 340 339 338 337 335 335 334 334 334 333 333 333 332 331 329 329 328 329 330 330 331 332 332 332 330 328 326 324 317 313 311 310 310 312 314 315 311 311 311 310 314 322 329 332 333 333 334 334 335 335 336 337 337 337 337 337 337 337 337 336 336 336 336 336 336 337 337 338 339 340 341 341 340 340 339 339 338 338 337 337 338 338 338 338
341 341 341 341 341 340 339 339 339 340 342 343 342 341 340 340 340 339 339 339 338 337 336 335 334 334 334 334 333 332 332 332 330 329 328 328 328 329 331 332 332 332 331 329 327 326 324 316 312 309 309 309 311 314 315 311 311 311 311 318 325 330 332 332 333 333 334 334 335 336 336 336 336 336 336 335 335 335 336 336 335 336 336 336 336 337 337 338 339 338 338 338 337 337 337 337 336 336 335 335 336 336 336
341 342 342 341 341 341 339 339 340 341 342 342 341 340 340 339 339 338 338 338 337 336 336 335 335 335 334 334 334 333 333 331 330 328 328 328 329 329 331 331 331 331 329 328 326 325 323 315 310 309 309 310 312 314 312 311 312 313 313 322 328 332 332 332 333 333 334 335 335 336 336 335 335 335 335 335 335 336 336 336 336 336 336 337 336 336 337 337 337 337 337 336 336 336 336 336 335 334 333 333 334 334 335
342 342 342 341 340 340 340 340 340 341 343 342 341 340 339 338 338 338 337 337 336 336 336 335 335 335 334 335 334 333 332 330 329 327 327 328 329 330 331 330 330 329 328 326 325 323 319 312 309 308 308 309 311 312 311 311 311 311 313 324 330 332 332 333 333 333 334 335 336 336 335 335 335 334 335 335 336 336 337 337 337 337 337 337 337 336 336 336 336 336 336 335 335 335 335 335 334 334 333 333 333 333 333
343 343 342 341 341 340 340 340 340 341 342 341 340 339 338 338 338 337 336 336 336 335 335 335 335 335 335 335 334 332 330 328 327 326 326 327 328 329 330 329 328 327 326 324 322 319 315 311 309 309 309 311 311 311 314 313 313 314 318 328 331 332 332 333 333 334 334 335 335 335 335 335 335 335 336 336 337 337 338 338 338 338 337 336 336 335 335 335 335 335 335 335 335 334 334 334 334 334 333 333 333 333 333
343 343 342 342 342 341 341 341 340 340 341 341 340 339 338 338 337 337 336 336 335 335 335 335 335 335 335 333 331 329 327 325 324 325 325 326 327 328 328 328 327 325 324 321 317 313 311 309 309 309 309 310 310 312 318 316 314 317 327 331 332 333 333 333 334 334 335 335 335 335 335 335 336 336 337 336 336 337 337 336 337 336 335 335 335 334 334 334 334 334 334 334 334 334 334 334 334 333 333 332 332 332 332
340 339 339 341 342 342 342 341 341 340 340 340 340 339 338 338 337 337 336 336 335 335 335 335 335 335 333 330 327 325 323 323 323 323 324 325 326 326 326 325 324 322 320 315 311 308 309 308 309 310 311 310 310 312 317 316 316 321 332 333 333 333 334 334 334 335 335 335 336 335 336 336 336 336 336 336 336 335 335 334 335 334 334 334 333 333 332 333 333 333 333 333 333 333 333 333 333 332 332 332 332 332 331
336 336 337 340 341 342 343 342 341 340 340 341 341 340 339 338 337 337 336 336 335 335 335 335 334 333 329 325 322 320 318 320 321 322 322 323 324 324 324 322 321 318 315 310 307 307 307 308 309 310 311 310 310 312 316 315 320 327 334 334 334 334 334 334 335 335 336 336 336 336 336 336 336 335 335 335 334 334 334 333 333 333 332 332 332 331 332 332 332 332 332 332 332 332 332 332 332 332 331 331 331 331 331
332 333 337 339 341 341 343 342 341 341 341 341 341 340 339 338 338 336 336 336 335 335 335 334 333 329 324 319 316 312 307 311 313 317 320 321 321 321 321 319 316 312 308 307 306 305 306 307 309 310 310 309 311 313 316 315 322 331 334 334 334 334 335 335 336 337 337 337 336 336 336 335 335 334 333 333 332 333 332 332 331 331 331 331 330 330 330 330 330 330 330 330 331 331 331 331 330 330 330 330 330 330 329
331 334 338 339 340 341 342 342 341 342 341 342 341 340 340 338 337 337 335 335 335 334 334 333 329 324 319 315 309 304 298 299 301 305 311 315 317 317 316 313 309 305 303 305 305 304 305 306 308 310 310 309 310 313 317 317 325 332 334 334 334 334 335 336 337 337 337 336 336 335 335 334 333 332 332 332 331 331 331 330 330 330 330 330 329 329 328 328 328 328 328 329 329 329 329 329 329 329 329 329 329 329 329
333 336 338 339 340 341 341 341 342 342 342 342 341 340 339 337 336 334 333 332 332 331 330 328 323 319 314 311 304 299 296 295 296 297 299 304 308 310 309 306 303 301 302 303 303 304 304 306 308 309 310 309 310 313 317 320 326 332 333 334 334 334 335 336 336 337 336 335 334 333 333 332 331 331 330 330 330 329 329 329 329 329 329 328 328 327 327 327 327 327 327 327 327 327 328 328 328 328 328 328 328 328 328
332 335 337 339 340 340 340 340 341 341 341 341 339 338 337 334 332 329 328 327 327 326 324 321 317 314 311 304 299 296 295 295 295 296 296 297 298 300 300 301 301 300 301 301 302 303 305 306 307 308 308 308 310 313 316 321 327 332 333 333 334 334 335 336 336 335 334 333 333 332 331 331 330 329 329 329 328 327 327 327 327 327 327 327 326 326 326 326 326 325 325 325 325 325 325 326 326 326 326 326 326 326 326
327 328 330 334 336 336 336 335 336 337 337 336 331 325 323 324 323 322 321 319 319 319 317 313 307 303 302 298 296 295 294 294 295 296 296 294 294 295 297 298 300 301 300 300 302 304 304 306 306 307 306 308 310 312 317 323 328 331 331 332 333 334 334 334 334 333 332 332 331 330 330 329 328 328 327 327 326 326 326 326 326 325 325 325 325 325 325 324 324 324 324 324 323 324 324 324 324 325 325 325 325 325 325
323 324 325 327 329 331 331 328 329 330 332 332 323 315 310 309 310 310 309 306 306 307 307 303 299 296 296 296 295 294 294 294 294 294 295 294 294 295 297 298 299 300 299 301 303 304 305 306 306 306 306 308 309 311 316 324 328 329 330 331 332 332 333 333 332 332 331 330 330 329 328 327 326 326 325 325 325 324 324 324 324 324 323 323 323 323 323 323 323 322 322 322 322 322 322 322 323 323 323 323 324 324 323
322 323 323 324 327 329 330 328 327 328 330 328 321 312 306 302 301 301 300 298 297 297 297 297 296 295 295 295 294 294 293 294 294 294 293 294 294 294 295 296 297 299 300 301 303 304 305 306 306 306 306 307 308 311 316 323 326 327 328 329 330 331 332 331 331 331 329 329 328 327 326 325 325 324 324 323 323 323 322 322 322 322 322 322 322 321 321 321 321 321 321 321 321 321 321 321 321 322 322 322 322 322 322
321 322 322 325 328 331 331 329 329 329 330 326 319 311 305 301 299 298 298 297 296 295 295 295 295 295 294 294 293 292 292 293 294 294 292 292 293 293 293 294 296 297 299 300 301 303 304 305 305 305 305 305 306 309 315 322 325 326 326 327 328 329 330 330 329 329 328 327 326 326 325 324 323 323 322 322 321 321 321 321 321 321 320 320 320 320 320 320 320 321 320 320 319 319 320 320 320 321 321 321 321 321 321
321 322 322 324 328 330 331 330 330 330 329 326 318 310 303 300 298 298 298 297 297 296 296 295 295 295 294 293 292 291 291 291 290 290 289 290 291 292 292 293 294 296 297 298 300 301 303 303 304 304 303 303 304 307 313 320 324 324 325 325 326 326 327 328 328 327 327 326 325 324 324 323 322 321 321 320 320 320 320 320 320 319 319 319 319 319 319 319 320 319 319 319 319 318 319 319 319 320 320 320 320 321 320
321 322 322 324 326 329 330 330 330 330 328 325 318 309 300 299 298 298 298 298 297 297 296 295 294 294 294 293 292 291 290 290 289 289 288 288 290 291 292 292 293 294 296 297 299 300 300 300 300 301 302 302 303 306 310 319 323 323 323 324 324 324 325 326 326 325 325 325 324 323 322 322 321 320 320 319 319 319 319 319 319 319 319 319 319 319 319 319 319 319 319 318 318 318 318 318 319 319 320 320 320 320 320
321 322 322 322 325 327 330 332 331 330 327 323 316 308 300 299 299 299 298 298 297 296 295 294 294 294 294 293 293 292 290 290 289 289 288 288 288 290 291 292 292 293 294 296 297 298 298 298 298 298 299 301 302 304 306 316 321 323 322 322 322 323 323 323 324 324 324 324 323 323 322 321 320 320 319 319 319 318 318 318 318 319 319 318 318 318 318 318 318 318 318 318 318 318 318 318 318 319 319 319 319 319 319
322 322 321 322 324 327 330 332 332 330 326 321 316 309 301 299 299 299 298 298 297 296 296 295 294 294 295 294 293 292 291 290 289 289 288 288 288 288 290 291 292 292 293 295 296 297 296 296 296 297 298 299 302 303 304 312 318 322 321 321 321 321 321 321 321 322 322 322 322 322 322 321 320 319 319 318 318 318 318 318 318 318 318 318 318 318 318 318 318 318 318 317 317 317 317 317 318 318 318 319 319 319 319
321 322 322 323 325 326 329 332 332 329 325 320 314 309 302 300 299 299 298 297 297 296 296 295 295 294 294 295 295 294 292 290 289 289 288 290 288 287 287 289 290 290 291 293 294 295 296 296 296 296 297 298 299 302 303 309 316 320 320 320 319 319 318 319 319 319 320 320 321 321 320 320 320 319 319 318 318 318 318 318 318 318 318 318 318 318 318 318 318 318 317 317 317 317 317 317 317 318 318 318 318 318 318
321 322 322 322 323 325 327 329 330 328 323 319 314 308 303 301 300 299 298 297 296 295 294 293 293 293 293 293 294 294 295 292 291 289 288 289 288 287 286 287 288 289 290 291 292 292 293 295 295 296 297 297 297 299 301 305 312 318 319 318 317 317 316 317 317 317 318 318 319 319 319 319 319 319 318 318 318 318 318 318 318 318 318 318 318 318 318 318 318 317 317 317 317 317 317 317 317 317 318 318 318 318 318
321 321 322 322 322 324 324 326 326 324 321 318 313 307 303 301 300 299 298 297 296 295 293 293 293 293 293 293 292 293 294 292 291 290 289 288 287 287 287 287 287 288 288 288 289 290 291 292 293 294 296 296 297 298 300 302 308 314 318 317 316 315 315 315 315 315 316 317 317 318 319 319 319 319 318 318 318 318 318 318 318 318 318 318 318 318 318 318 318 318 317 317 317 316 317 317 317 317 317 317 317 317 317
322 321 321 322 323 322 321 322 322 321 319 317 311 306 301 300 299 299 298 296 296 295 294 294 294 294 293 293 292 292 292 292 291 290 289 288 288 287 288 287 287 286 286 287 288 289 290 291 292 293 293 294 296 298 299 300 302 306 316 316 315 315 314 314 314 314 315 316 316 317 317 317 317 318 318 317 317 317 318 318 318 318 318 318 318 318 318 318 318 317 317 317 317 317 317 317 317 316 317 316 316 316 316
322 322 321 323 322 321 319 320 319 317 315 314 309 304 300 299 298 298 296 295 294 293 292 293 292 292 292 292 291 291 290 289 289 290 289 288 288 287 286 285 285 285 285 287 289 289 289 291 292 292 292 293 294 295 297 298 299 302 311 315 315 314 314 313 313 313 314 314 315 315 316 316 316 316 317 317 317 317 317 317 318 318 318 318 318 318 318 317 317 317 317 317 317 317 317 316 316 316 316 316 316 316 316
322 321 321 321 321 320 317 319 317 314 310 309 306 302 299 297 296 295 295 293 292 291 290 290 290 290 290 290 290 290 289 288 289 290 290 289 288 287 286 286 286 285 285 287 288 288 288 290 291 291 292 292 293 294 295 297 298 300 304 311 314 314 314 313 312 312 312 313 313 314 314 314 315 315 315 315 316 316 316 316 317 317 317 317 317 317 317 317 317 317 317 317 317 316 316 316 316 316 315 315 315 315 315
321 321 321 321 320 317 315 316 314 310 306 305 303 300 297 296 295 294 294 293 292 291 290 289 289 289 288 289 289 289 288 287 287 288 289 288 287 286 286 286 286 286 286 286 286 287 288 289 290 290 291 292 293 293 294 295 298 300 301 307 311 313 314 313 312 312 311 311 312 312 312 313 313 313 314 314 314 314 315 315 315 316 316 316 316 316 316 316 316 316 317 317 317 316 316 316 315 315 314 314 314 314 314
322 321 322 320 318 316 314 314 312 308 304 302 300 298 297 296 296 296 295 294 293 292 291 291 290 290 289 289 289 289 289 288 288 288 288 287 287 287 286 286 286 286 288 287 287 287 288 289 289 290 290 291 291 291 292 294 295 297 298 300 303 307 308 310 311 311 311 310 311 311 311 311 311 311 311 312 312 312 313 314 314 314 315 315 315 315 315 315 316 316 316 316 316 316 316 315 315 314 314 314 314 314 314
321 321 321 320 318 314 312 310 309 307 303 301 300 299 297 297 297 297 296 295 293 293 293 293 294 294 292 291 290 289 289 289 290 290 289 288 288 288 287 287 287 287 288 288 288 288 288 288 288 288 288 288 289 289 290 292 292 293 295 294 296 297 299 300 304 308 310 310 310 310 309 309 310 309 310 310 311 311 311 312 312 313 313 314 314 314 314 314 314 315 315 315 316 316 316 315 315 314 314 314 314 314 314
321 321 320 318 315 313 311 307 306 305 303 301 300 300 299 298 297 297 296 295 294 293 293 293 293 293 292 290 290 289 288 288 288 288 288 287 288 288 289 288 288 288 288 288 288 288 288 287 287 286 286 287 288 288 288 290 291 291 292 292 292 293 294 294 296 299 303 307 309 309 309 308 308 308 308 308 309 309 310 310 311 311 312 312 312 313 313 313 313 314 314 314 315 315 315 315 314 314 313 313 313 313 313
321 320 320 317 313 310 310 305 303 302 304 302 301 300 299 299 298 296 296 294 294 293 292 291 290 290 289 289 288 289 289 287 287 287 286 286 287 287 287 288 289 289 290 288 287 286 286 286 286 286 286 286 286 287 287 289 289 289 289 289 290 291 292 291 291 292 293 298 304 308 309 308 307 307 307 307 307 307 308 308 309 310 310 311 311 311 311 311 312 312 313 313 314 314 315 314 314 314 313 313 313 313 313
321 320 320 317 313 309 307 302 301 301 304 303 301 299 298 299 298 297 295 294 292 291 290 289 290 289 289 288 287 287 287 286 285 285 285 285 285 286 286 288 288 289 290 290 288 287 286 286 286 286 286 285 285 286 288 288 288 288 287 287 287 288 290 291 292 291 289 290 294 300 308 308 307 306 306 305 305 305 306 306 307 308 309 309 309 310 310 310 311 311 312 312 313 313 314 314 313 313 313 312 312 312 312
321 320 319 317 312 308 304 300 300 301 303 303 301 299 297 298 298 297 295 293 291 289 288 288 289 289 288 288 287 286 286 285 284 284 284 284 284 284 285 286 287 288 290 290 289 287 286 285 285 285 285 284 285 286 288 288 287 287 286 286 286 287 291 293 292 290 287 288 289 292 300 305 307 307 306 305 304 304 304 305 305 306 307 308 308 309 309 309 310 310 311 311 311 312 312 313 313 312 312 312 312 312 312
321 319 318 316 311 306 302 300 300 302 303 301 300 299 297 298 298 297 295 293 291 290 289 287 287 287 288 287 287 286 285 285 284 283 283 283 283 284 285 286 287 288 289 289 288 287 287 286 286 286 285 284 285 286 288 287 287 287 286 285 286 288 292 291 289 286 286 287 287 288 290 299 304 306 306 305 305 304 304 304 304 305 305 306 307 307 307 308 308 309 310 310 311 311 312 312 312 312 311 311 311 311 311
320 319 317 315 310 304 301 300 300 301 302 301 299 298 297 297 296 295 295 293 291 290 289 287 286 285 286 286 286 286 285 285 284 283 282 283 284 284 285 286 286 287 288 288 288 288 288 289 290 290 288 286 286 286 286 286 286 286 285 285 286 287 287 286 285 284 285 285 286 286 285 290 297 302 303 304 304 304 303 304 304 304 305 305 305 306 307 307 307 308 308 309 309 310 310 311 311 311 311 311 311 311 310
320 318 316 314 308 303 300 300 300 300 301 300 298 297 296 295 294 294 293 293 292 290 288 287 287 286 285 286 286 286 286 285 284 283 283 284 285 285 286 287 287 287 287 288 288 289 289 290 292 292 290 287 286 285 285 285 285 284 284 285 285 285 285 285 285 285 285 285 285 285 284 285 288 293 297 298 299 300 300 302 304 305 305 305 305 305 305 306 306 307 307 308 308 309 309 310 310 310 310 310 310 310 310
318 317 315 311 306 302 299 300 300 300 300 299 298 296 295 293 293 293 292 292 291 290 288 287 287 286 285 285 285 285 285 285 285 284 284 285 286 286 286 287 287 287 287 288 288 289 289 290 289 289 288 287 286 286 286 288 286 284 283 284 284 284 284 284 284 284 284 284 284 284 284 283 284 285 287 290 291 292 295 299 302 304 305 305 305 305 305 305 305 306 306 307 308 308 309 309 309 309 309 309 309 309 309
317 315 313 308 304 301 299 299 299 299 299 298 297 296 294 294 293 293 292 291 290 289 288 287 287 287 287 285 285 284 284 284 285 287 287 287 287 288 288 287 287 288 288 289 289 288 288 288 287 286 287 287 287 287 288 292 289 285 284 283 284 284 284 284 284 283 283 283 283 283 283 283 282 283 284 285 285 286 290 295 299 302 303 304 304 305 305 304 304 305 305 306 306 307 307 308 308 308 308 308 308 308 309
316 314 312 306 303 301 299 298 299 299 299 298 297 296 294 294 294 293 292 291 290 289 288 287 287 288 289 288 286 284 283 284 285 287 288 287 289 290 291 288 287 287 288 289 288 287 287 286 285 285 285 287 287 286 287 290 289 287 286 285 284 284 284 284 284 283 283 283 283 283 283 282 282 283 285 285 285 285 286 290 294 299 300 302 303 303 304 304 304 304 305 305 306 306 307 307 307 307 307 308 308 308 308
315 313 310 306 303 301 299 298 298 299 299 298 297 296 296 295 295 294 293 292 291 290 290 289 288 286 286 286 285 284 283 283 284 285 286 287 287 288 288 287 287 287 287 287 288 288 287 284 283 284 284 285 285 285 286 287 287 287 287 287 285 284 284 284 284 283 282 282 282 283 283 282 282 282 284 285 284 284 284 285 289 294 297 299 300 301 302 302 303 304 304 305 305 306 306 307 307 307 307 307 307 307 307
315 312 309 305 302 301 299 298 298 299 299 299 299 298 296 296 295 294 293 292 291 290 290 291 289 287 285 285 285 284 284 283 283 284 286 288 288 287 286 285 286 286 286 286 287 288 286 283 282 283 284 284 285 286 286 286 286 286 286 286 285 284 284 284 284 283 282 282 283 283 283 282 282 282 283 284 284 283 283 284 285 288 292 295 297 298 299 300 301 302 303 304 305 305 306 306 306 307 307 307 307 307 307
314 311 307 304 302 301 299 298 298 299 299 299 299 298 296 295 295 295 294 291 290 290 289 289 288 287 285 285 285 284 284 283 283 284 286 286 286 286 287 286 286 286 287 286 287 287 284 283 282 283 283 284 285 285 285 285 285 285 286 285 285 284 283 283 283 282 282 283 283 283 282 282 282 283 283 284 283 283 283 284 284 285 287 288 290 293 294 297 299 301 302 304 304 305 305 305 306 306 306 306 307 307 307
314 311 307 304 302 301 300 298 298 298 298 299 298 297 296 296 296 295 292 290 290 290 290 289 288 287 286 285 284 284 285 284 283 284 287 284 283 284 284 284 285 286 287 286 288 288 286 284 282 282 282 283 284 284 284 284 284 283 284 284 284 284 283 284 283 283 282 283 283 283 283 283 283 283 283 282 282 283 282 283 283 283 284 283 285 287 288 290 295 299 301 302 303 304 304 305 306 306 306 306 307 307 307
313 310 306 305 303 302 300 299 298 299 300 299 297 295 295 295 295 294 292 291 290 290 291 290 288 287 286 285 285 284 284 284 284 284 287 284 281 281 281 285 285 284 283 285 288 289 288 286 284 283 281 282 282 283 282 283 284 283 283 283 283 283 283 284 284 283 283 283 283 283 283 283 282 282 282 281 281 282 281 281 282 282 283 283 284 287 287 290 293 297 299 300 301 302 302 304 305 306 306 306 307 307 307
312 310 307 306 305 303 300 299 298 299 300 299 297 295 295 295 294 294 293 292 291 290 289 289 289 288 286 286 286 285 286 285 284 284 286 284 282 281 281 284 284 282 279 283 285 286 286 284 285 285 283 281 281 281 280 282 283 284 283 281 281 282 283 284 283 283 284 283 283 283 283 283 282 282 281 281 281 281 281 281 281 281 282 281 282 284 284 288 293 296 297 297 299 301 301 303 304 306 306 306 306 306 307
312 309 307 307 306 304 301 299 298 298 299 299 298 297 296 295 295 294 293 293 292 291 290 291 290 289 287 285 285 285 287 287 285 283 283 284 285 286 285 281 279 279 277 280 282 283 285 282 281 282 284 281 280 280 280 281 282 282 283 281 281 281 282 283 282 282 283 283 283 282 282 282 282 281 281 281 281 281 281 281 280 280 281 281 282 283 283 288 293 295 295 296 298 299 301 303 304 305 306 306 306 306 306
312 309 307 307 306 304 301 299 299 299 298 299 298 298 297 296 295 294 293 293 292 292 291 291 291 290 290 287 285 285 285 287 286 284 283 283 285 287 287 282 280 279 277 279 281 282 284 280 278 279 283 280 280 281 281 281 280 282 285 283 281 280 281 282 282 282 282 282 282 282 281 282 281 281 281 281 280 280 281 280 280 280 280 280 282 285 287 290 292 292 293 295 297 300 302 304 305 305 305 305 306 306 306
312 309 308 307 306 304 302 300 299 298 298 299 299 298 298 297 296 295 294 294 293 293 292 292 291 290 291 290 288 285 285 285 286 285 283 284 285 286 287 285 284 283 283 282 282 281 280 277 278 281 284 281 281 282 282 281 280 280 284 282 280 280 281 282 282 282 282 282 281 281 281 283 282 281 281 280 280 280 280 280 280 280 280 280 282 283 284 286 287 289 291 292 295 299 303 304 304 304 304 305 305 305 305
312 309 308 307 305 304 302 301 300 299 299 300 300 299 299 298 297 296 295 294 294 294 294 293 292 290 289 289 288 287 285 286 288 288 285 284 284 284 283 284 286 288 289 288 285 281 277 276 280 283 284 282 282 282 281 280 279 279 281 280 279 279 281 281 282 282 282 282 282 282 282 284 282 281 280 280 280 281 280 280 280 280 280 281 281 283 284 285 288 290 291 293 294 296 302 302 303 303 304 304 304 304 304
312 310 307 307 305 304 303 302 301 300 300 301 301 300 299 298 297 296 295 294 294 294 294 294 292 290 288 288 288 287 287 286 286 286 286 284 283 283 282 282 282 283 286 287 285 281 278 277 279 281 280 282 282 281 279 279 280 280 279 279 279 278 278 279 280 281 281 281 281 282 282 283 282 281 280 280 280 281 281 280 280 280 280 281 282 283 286 287 291 293 293 295 296 298 300 301 302 302 303 303 303 303 304
311 309 308 307 305 304 303 302 302 301 301 301 301 300 299 298 297 296 295 295 295 294 293 293 292 291 290 288 288 288 287 286 285 284 284 284 284 284 283 282 283 284 283 281 280 280 281 281 280 278 278 280 281 282 281 280 280 280 280 279 278 278 278 279 279 280 281 281 281 281 281 281 281 282 281 281 281 281 281 281 280 280 280 281 282 283 287 290 292 294 296 299 299 299 300 300 301 301 302 302 302 303 303
311 309 308 307 305 304 303 303 302 302 301 301 301 300 299 298 297 297 297 296 295 295 294 293 292 291 291 289 289 289 289 287 285 284 283 285 285 285 284 283 282 282 282 280 279 279 280 282 281 279 279 280 280 280 282 281 280 279 279 279 278 278 278 279 279 280 281 281 280 280 281 281 281 281 281 281 281 281 281 280 280 280 280 281 281 283 287 286 287 289 293 297 299 299 299 299 300 300 301 301 302 302 303
311 309 308 307 305 303 303 303 303 302 301 301 301 299 299 298 298 298 298 295 295 294 293 292 291 291 291 289 288 289 289 288 285 284 283 285 286 286 286 284 283 283 283 281 280 279 279 278 278 279 280 281 280 279 280 280 280 280 280 279 278 278 279 279 279 280 280 280 280 280 280 281 280 280 280 281 281 280 281 281 280 280 280 280 281 282 285 285 285 286 288 293 297 298 298 298 299 299 300 300 301 302 302
Wind_Speed
11 10 10 10 9 9 9 8 8 8 7 7 6 6 5 5 5 5 6 6 6 6 5 5 6 7 7 7 7 7 8 8 8 8 8 8 8 9 9 9 9 10 9 10 10 11 10 8 6 5 5 4 4 4 5 5 5 4 3 3 3 3 3 5 5 5 3 3 4 3 3 1 2 3 3 3 2 3 3 2 2 5 6 5 5 5 6 6 6 6 4 3 2 2 3 5 6 7 6 3 3 4 6
10 10 10 9 9 8 8 7 7 7 7 6 6 5 5 4 5 5 6 6 6 5 4 5 6 7 7 7 7 8 8 8 8 8 8 8 8 8 9 9 9 9 10 10 11 11 10 7 6 5 6 5 5 4 5 5 4 4 3 3 3 3 4 5 5 4 4 4 4 4 4 3 3 3 2 2 1 1 1 1 2 4 4 3 3 4 5 5 5 5 4 4 3 2 2 2 4 5 5 1 1 1 3
10 10 9 9 8 7 7 7 6 6 6 5 5 4 4 4 5 6 7 6 5 4 4 5 6 7 7 7 7 7 8 8 8 8 8 8 8 8 8 9 9 9 10 10 11 11 10 8 7 5 6 6 5 5 5 4 4 4 3 3 3 4 4 5 5 4 4 5 5 5 5 5 5 4 3 2 1 2 2 3 3 4 3 2 2 3 4 5 5 5 4 4 4 4 3 2 2 3 3 0 2 1 0
10 9 9 8 7 7 6 6 6 5 5 4 4 4 3 4 5 6 7 6 5 4 4 6 7 8 7 7 7 7 7 7 7 7 7 8 8 8 8 8 8 9 10 10 11 10 8 7 6 6 6 6 6 6 5 4 4 4 4 3 4 4 5 5 5 5 5 5 6 6 6 6 6 6 5 5 5 5 5 5 4 3 3 2 3 5 6 6 6 5 4 4 3 3 3 3 2 2 3 2 3 3 4
10 9 8 8 7 6 6 5 5 5 4 3 3 3 3 3 4 5 7 7 6 6 6 7 8 8 7 7 7 7 7 7 7 7 7 8 8 8 8 8 8 8 9 10 10 9 7 6 6 6 6 6 6 5 5 4 4 4 3 3 4 5 5 5 5 5 5 5 6 6 6 6 6 6 6 6 6 6 6 6 6 5 5 6 6 7 7 6 5 5 5 4 5 5 5 5 5 6 6 6 6 6 7
10 9 9 8 7 6 6 5 5 5 4 3 3 3 3 3 3 4 7 7 7 7 7 8 8 8 7 7 7 7 7 7 7 7 8 8 8 8 7 7 7 8 9 10 10 10 8 6 5 5 5 5 5 4 4 4 4 3 3 3 4 5 5 5 5 5 5 5 5 6 6 6 6 6 6 6 6 6 7 7 7 7 8 8 8 8 8 6 5 5 6 7 8 8 9 9 10 10 9 8 8 8 9
10 9 9 8 7 6 6 5 5 5 5 5 5 5 5 5 4 5 6 7 8 8 8 8 8 7 8 7 7 7 8 8 8 8 8 8 8 7 7 7 7 8 9 10 10 10 8 6 5 5 5 5 4 4 3 3 3 3 3 3 4 5 6 5 5 5 5 5 5 5 6 6 7 6 6 6 6 6 7 7 7 8 8 8 8 8 7 6 6 7 9 11 12 13 12 13 13 13 12 9 8 9 11
9 9 9 8 7 6 5 5 4 4 4 6 6 6 6 5 5 5 6 7 8 8 8 8 8 8 8 8 8 8 8 8 9 9 9 9 8 7 7 7 8 9 10 10 11 10 9 7 6 5 5 4 4 3 3 3 3 3 3 3 4 5 5 5 5 5 5 4 4 5 6 7 7 7 7 7 7 7 7 7 7 7 7 7 8 8 8 8 9 10 11 12 13 13 13 14 15 15 14 11 10 11 12
9 8 8 8 7 6 5 4 3 3 3 5 6 7 6 5 5 6 7 7 7 8 8 8 8 8 8 8 8 8 9 9 9 10 9 9 8 8 8 8 9 10 10 11 11 11 10 7 6 5 4 3 3 3 3 2 2 3 3 4 4 4 5 5 5 4 4 4 4 5 6 7 7 7 7 7 7 7 7 7 6 6 6 7 7 8 9 10 10 11 11 12 12 12 13 14 15 15 13 11 11 12 13
8 8 7 7 7 6 5 4 3 2 2 3 5 6 7 6 6 6 7 7 7 7 7 7 7 7 7 8 8 9 9 10 10 10 10 9 9 9 9 10 10 11 11 11 11 11 9 6 5 4 3 3 3 3 3 2 2 3 3 4 4 4 5 5 4 4 4 3 4 5 6 7 7 7 7 7 7 7 7 7 6 6 6 7 7 8 9 10 10 10 10 11 11 12 12 13 13 13 11 11 11 12 14
8 8 7 7 6 5 4 4 4 3 2 3 5 7 7 7 7 6 6 6 6 6 7 7 7 7 7 8 8 9 10 10 10 10 10 10 10 10 10 11 11 12 12 11 11 10 9 6 5 4 3 3 3 3 2 2 2 3 3 4 5 5 5 5 4 4 3 3 4 6 7 7 7 7 7 7 7 8 8 8 8 8 8 9 9 10 10 10 10 10 10 11 12 12 13 13 13 12 10 11 11 12 13
8 8 8 7 6 5 4 4 4 4 4 4 6 7 7 7 6 6 6 6 6 6 6 7 7 7 7 8 9 10 10 10 10 10 10 10 10 10 11 11 12 12 12 11 11 10 8 6 4 3 3 3 3 3 2 2 3 3 3 4 5 5 5 5 4 3 3 4 5 6 7 7 7 7 8 8 9 10 11 11 11 11 11 11 11 11 10 10 10 11 11 12 12 12 13 13 13 12 11 11 11 12 13
8 8 8 7 6 5 3 3 4 4 5 6 7 7 7 7 6 6 5 5 5 6 6 6 7 7 8 9 10 10 10 10 10 10 10 10 10 11 11 11 12 12 11 11 10 8 6 4 3 3 3 3 3 2 2 2 2 3 4 5 6 6 5 4 3 2 3 5 6 7 7 8 8 9 10 10 11 12 13 12 12 12 13 13 13 12 11 11 12 12 12 12 12 12 12 12 12 12 12 11 11 12 12
8 7 7 6 5 4 4 3 3 4 5 6 7 7 7 6 6 5 5 5 5 5 5 6 7 8 9 10 10 10 10 10 10 10 10 10 10 10 11 11 11 11 11 9 7 5 3 3 3 3 3 3 2 3 3 2 2 3 5 6 6 6 5 4 2 2 4 6 7 8 9 10 11 11 11 11 11 12 13 12 12 12 13 14 13 12 11 12 13 14 14 13 12 12 12 12 12 12 11 11 11 12 12
7 6 6 5 5 4 4 4 3 4 4 6 7 7 6 6 5 5 5 5 5 5 5 6 7 9 10 11 11 11 11 11 10 10 10 10 10 10 10 11 11 10 10 7 4 3 3 3 3 3 3 3 3 3 3 3 3 4 7 7 7 6 5 3 2 4 6 7 8 9 10 11 12 12 11 11 11 12 12 11 11 12 13 13 13 12 12 13 14 14 14 13 13 12 12 12 12 11 11 11 11 12 12
6 6 6 5 5 4 4 4 4 4 4 5 6 6 6 5 5 5 5 5 5 5 5 6 8 10 11 11 11 11 10 10 10 10 10 10 10 10 10 10 10 9 7 4 3 3 3 3 3 3 3 4 3 3 3 3 4 5 8 8 7 5 4 3 4 7 9 9 10 11 11 12 13 12 11 11 11 12 13 12 12 13 13 13 13 13 13 13 14 14 13 13 13 12 12 12 12 11 11 11 11 11 11
6 5 5 5 5 5 4 4 4 4 4 5 6 6 5 5 5 4 5 5 5 5 5 6 8 10 12 12 11 10 7 8 8 9 9 9 9 9 10 9 9 7 4 3 3 3 4 3 3 3 4 4 4 4 4 3 5 7 9 8 6 4 3 5 8 10 11 11 11 11 12 13 13 12 12 12 12 13 13 13 13 13 13 13 13 12 12 13 12 12 12 12 12 12 12 12 11 11 12 11 11 11 11
5 5 5 5 5 4 5 5 4 4 4 5 5 6 5 5 5 5 5 5 5 5 6 8 10 11 12 12 10 8 4 4 5 5 7 8 8 9 9 8 7 5 3 3 3 3 3 3 3 3 4 4 4 4 4 4 6 8 9 8 6 4 5 8 11 12 12 11 11 12 13 13 13 12 12 12 13 13 13 13 13 12 12 12 12 12 12 12 11 11 12 12 12 12 12 11 11 11 11 11 11 11 11
5 5 5 5 5 5 5 5 4 4 4 4 5 5 6 7 7 7 7 6 7 7 8 10 11 12 12 11 9 6 4 4 4 3 4 5 6 7 6 5 4 4 4 3 3 4 4 4 4 4 4 4 4 4 5 5 7 9 10 8 6 5 8 11 12 13 12 11 11 12 13 13 13 12 12 12 12 12 12 12 12 12 12 11 11 11 11 11 11 11 11 11 11 11 11 11 11 10 10 10 10 11 11
4 4 4 4 4 4 4 4 4 4 4 4 5 6 7 8 8 9 9 9 9 9 10 11 11 10 10 8 6 5 4 4 4 3 3 3 4 4 4 3 3 3 4 3 4 4 4 4 4 4 4 4 4 4 4 5 8 11 10 9 7 8 10 12 12 12 11 11 11 12 13 13 12 12 12 12 11 11 11 11 11 11 11 11 10 10 10 10 10 10 10 10 10 10 10 10 10 10 10 10 10 10 10
2 2 2 3 3 3 3 3 3 4 4 6 7 6 7 7 8 9 10 9 9 10 11 10 8 6 6 5 5 5 4 4 4 4 3 3 3 3 3 3 3 3 3 3 4 4 3 3 3 4 4 4 4 4 5 7 9 12 11 10 9 9 11 12 12 11 11 11 11 12 12 12 11 11 11 11 11 10 10 10 10 10 10 10 10 9 9 9 9 9 9 9 9 10 10 10 10 10 9 9 10 10 10
2 2 2 2 2 2 2 2 3 4 5 7 7 6 5 5 6 7 8 7 7 8 8 7 5 4 3 5 5 5 4 3 4 4 3 3 3 3 3 3 3 3 3 3 3 3 3 3 3 4 4 4 4 4 5 9 11 12 12 11 10 10 11 11 12 11 11 11 11 11 12 11 11 10 10 10 10 10 10 10 10 10 9 9 9 9 9 9 9 9 9 9 9 9 9 9 9 9 9 9 9 9 9
2 2 2 2 2 2 2 2 3 3 4 6 6 5 4 4 4 5 5 5 5 5 6 5 4 3 3 4 5 4 3 3 3 3 3 3 3 3 3 3 3 3 3 3 3 3 3 3 3 4 4 4 4 4 5 9 12 12 13 12 12 11 11 11 11 11 11 11 11 11 11 10 10 10 10 10 9 9 9 9 9 9 9 9 9 9 9 9 8 8 8 8 8 8 8 9 9 9 9 9 9 9 9
2 2 2 2 2 2 1 2 2 3 3 4 4 4 4 3 4 4 4 4 4 4 5 4 4 3 3 4 4 4 3 4 4 3 3 3 3 3 3 3 3 3 3 4 4 3 3 3 3 3 4 4 3 4 5 9 11 13 13 13 13 12 12 11 11 11 11 11 11 10 10 10 10 9 9 9 9 9 9 9 9 8 8 8 9 9 8 8 8 8 8 8 8 8 8 8 8 8 8 8 8 8 8
2 2 2 2 2 2 1 2 2 3 3 3 4 4 4 3 3 4 4 3 3 4 4 4 3 3 3 4 4 4 4 4 4 4 3 3 3 3 3 4 3 3 3 3 3 3 3 3 3 3 4 4 3 4 5 8 11 12 13 13 13 13 12 12 11 11 11 11 10 10 9 9 9 9 9 9 9 9 8 8 8 8 8 8 8 8 8 8 8 8 8 8 8 8 8 7 7 8 8 8 8 8 8
2 2 2 2 2 2 2 2 3 3 3 3 3 4 4 4 3 3 3 3 3 3 3 3 3 2 3 4 5 5 5 5 5 5 4 3 4 4 4 4 4 3 3 3 3 3 3 3 3 3 3 3 3 4 4 8 11 12 12 13 13 13 13 12 12 11 11 10 10 10 9 9 9 9 9 9 8 8 8 8 8 8 8 8 8 8 7 8 8 8 8 8 7 7 7 7 7 7 7 7 8 8 8
2 2 2 2 2 2 2 2 3 3 3 2 3 3 4 4 3 3 3 3 3 3 3 3 3 3 3 4 5 5 4 4 4 4 4 4 3 4 4 4 4 3 3 3 3 3 3 3 3 3 3 3 3 3 3 8 10 12 12 13 13 13 13 12 12 11 11 11 10 10 9 9 9 8 8 8 8 8 8 8 8 8 8 8 7 7 7 7 7 7 7 7 7 7 7 7 7 7 7 7 8 8 8
2 2 2 2 2 2 2 2 3 3 3 3 3 3 4 4 3 3 3 3 3 3 3 3 3 2 2 3 4 4 3 4 4 4 4 4 4 3 4 4 4 3 3 3 3 3 3 3 3 3 3 3 3 3 3 6 9 11 12 12 13 13 13 13 12 12 11 10 10 10 9 9 9 8 8 8 8 8 7 7 7 7 7 7 7 7 7 7 7 7 7 7 7 7 7 7 7 7 7 7 7 8 8
2 2 2 2 2 2 3 3 3 3 3 3 3 3 3 4 4 3 3 3 2 2 3 3 2 2 3 3 3 3 2 3 4 4 4 4 4 4 4 4 3 3 3 3 3 3 3 3 3 3 3 4 3 3 3 5 8 11 12 12 13 13 13 13 12 12 11 10 10 10 9 9 9 8 8 8 8 7 7 7 7 7 7 7 7 7 7 7 7 7 7 7 7 7 7 7 7 7 7 7 8 8 8
3 2 2 2 2 2 3 3 3 3 3 3 3 3 2 3 3 4 3 3 3 3 3 3 2 2 3 3 3 3 2 2 3 4 4 4 4 4 4 4 3 3 3 3 2 2 2 3 3 3 3 3 3 3 3 4 7 10 12 13 13 13 13 12 12 12 11 10 10 10 9 9 9 8 8 8 8 7 7 7 7 7 7 7 7 7 7 7 7 7 7 7 7 7 7 7 7 7 7 7 8 8 8
3 3 3 2 2 2 3 3 3 3 3 3 3 3 3 3 3 4 4 4 3 3 3 3 3 3 3 3 3 2 1 2 3 3 4 4 5 5 4 3 3 3 2 2 2 2 2 2 2 3 2 3 3 3 4 4 6 9 12 13 13 13 13 12 12 11 11 10 10 10 9 9 9 9 8 8 8 8 7 7 7 7 7 7 7 7 7 7 7 7 7 7 7 7 7 7 7 7 7 7 8 8 8
3 3 3 3 3 3 2 3 3 3 3 3 3 3 3 3 3 3 3 3 3 3 3 3 3 3 3 3 3 2 1 1 2 3 3 4 4 5 4 4 3 3 2 2 2 2 2 2 2 2 2 3 3 3 3 3 4 6 10 11 12 12 12 12 12 11 11 10 10 10 10 9 9 9 9 8 8 8 8 8 7 7 7 8 8 8 7 7 7 7 7 7 7 7 7 7 7 7 7 7 7 7 7
4 3 3 4 4 3 3 3 3 3 3 3 4 3 3 3 3 3 3 3 3 2 3 3 3 3 3 4 3 2 1 1 2 3 3 3 3 3 3 3 3 2 2 2 2 2 2 2 2 2 2 3 3 3 3 3 3 4 6 9 11 12 12 12 11 11 11 11 10 10 10 10 10 10 9 9 9 8 8 8 8 8 8 8 8 8 8 8 8 7 7 7 7 7 7 7 7 7 7 7 7 7 7
4 4 4 4 4 4 3 4 3 3 3 3 4 4 4 3 3 3 4 3 3 3 4 4 3 3 3 4 3 2 2 2 2 3 4 3 3 3 2 3 2 2 2 2 2 2 2 2 2 2 2 3 3 3 3 3 3 3 4 6 8 10 11 11 11 11 11 11 11 11 11 10 10 10 10 10 9 9 9 9 9 9 9 9 8 8 8 8 8 7 7 7 7 7 7 7 7 7 7 7 7 7 7
4 4 4 4 4 4 4 4 4 3 3 3 4 5 5 5 4 4 4 4 4 4 4 4 3 3 3 3 3 3 2 2 3 3 4 3 2 2 2 2 2 2 2 2 2 1 2 2 2 2 2 3 3 3 3 3 3 3 3 5 6 8 9 10 10 10 11 11 11 11 11 11 11 10 10 10 10 10 9 9 9 9 9 9 9 9 9 8 8 8 7 7 7 7 7 7 7 7 7 7 6 6 6
5 5 4 4 4 4 4 4 4 4 4 4 4 5 6 5 5 4 4 4 4 4 3 3 3 3 3 3 4 3 2 2 3 4 4 3 2 2 2 2 2 1 2 2 1 1 2 2 2 2 2 2 2 2 2 2 2 2 3 3 4 5 6 7 8 8 10 10 10 10 11 11 11 11 10 10 10 10 10 10 10 9 9 9 9 9 9 9 8 8 8 7 7 7 7 7 7 6 6 6 6 6 6
5 5 5 5 5 5 4 4 4 4 5 4 4 5 5 5 4 4 4 4 4 4 3 3 3 3 3 3 3 3 2 2 3 4 3 2 2 2 2 2 2 1 2 1 1 1 2 2 2 2 2 2 2 2 2 2 2 2 2 2 3 3 3 3 4 6 7 9 9 10 10 10 10 10 11 10 10 10 10 10 10 10 9 10 9 9 9 9 9 8 8 7 7 7 7 7 6 6 6 6 6 6 6
5 5 5 5 5 5 5 4 4 5 5 5 4 5 5 4 4 4 4 4 5 4 4 4 3 3 3 3 3 2 2 2 3 3 2 2 2 2 2 2 1 1 2 1 1 1 2 1 1 2 2 2 2 2 1 2 2 2 2 2 2 2 2 2 2 3 4 6 7 8 9 9 9 10 10 10 10 10 10 10 10 10 10 9 10 10 10 9 9 9 8 8 7 7 7 7 6 6 6 5 5 5 5
5 5 5 5 5 5 5 4 5 5 5 5 4 4 5 5 4 4 4 4 4 4 3 4 3 3 3 3 3 2 2 2 3 3 2 2 2 2 2 2 2 1 1 1 1 2 2 1 1 2 2 2 2 1 2 2 2 2 2 2 2 2 2 2 2 2 3 4 5 6 7 8 8 8 9 9 10 10 10 10 9 9 9 9 9 9 10 9 9 9 9 8 8 7 7 7 6 6 5 5 5 5 5
6 6 5 5 5 5 4 5 5 5 5 5 4 4 4 5 5 4 3 4 3 3 2 3 4 3 2 2 2 2 2 2 2 3 2 2 2 2 2 2 2 1 1 1 2 2 2 2 2 2 2 2 2 1 2 2 2 2 3 3 3 3 3 3 3 3 3 3 4 5 6 7 7 7 7 8 9 9 9 9 9 9 9 9 9 9 9 9 9 9 9 8 8 8 7 7 7 6 5 5 4 4 4
6 6 5 5 5 5 5 6 6 6 5 5 5 4 4 5 5 5 4 4 3 2 1 2 3 3 2 1 2 2 1 2 2 2 2 2 2 2 2 2 2 2 2 2 2 2 2 2 2 2 2 2 2 2 2 2 3 3 3 4 4 4 4 4 4 4 3 3 3 4 6 7 7 7 7 7 8 8 8 8 8 8 8 8 8 9 9 9 9 9 9 9 8 8 8 7 7 6 5 5 4 4 4
6 6 5 5 5 5 5 6 6 6 5 5 5 5 5 4 5 5 5 4 3 2 2 2 2 3 3 2 2 2 2 2 2 2 2 2 2 2 1 2 2 2 2 2 2 2 2 2 1 1 1 1 2 2 2 3 3 3 4 4 4 4 4 5 4 4 3 3 3 4 5 7 8 8 8 8 8 8 8 8 8 8 8 8 8 8 8 9 9 9 9 9 8 8 8 7 7 6 6 5 4 4 3
6 6 6 6 5 5 6 6 6 5 5 5 5 5 5 4 4 4 5 4 4 3 2 2 2 2 3 2 2 2 2 2 1 2 2 2 2 2 2 3 3 3 2 2 2 2 2 1 1 1 1 2 2 2 2 3 3 3 3 3 3 3 4 4 4 3 3 3 3 3 3 5 7 9 9 10 10 10 10 9 9 8 8 8 8 8 8 8 8 9 9 8 8 8 8 7 7 7 6 5 4 4 3
6 6 6 6 5 5 6 6 6 5 5 5 5 5 4 4 3 4 3 4 4 3 2 1 1 2 2 2 2 2 3 3 2 1 2 2 2 3 3 3 3 3 3 3 3 2 2 2 2 2 2 2 2 2 2 2 2 2 2 2 2 3 3 4 3 3 3 3 3 3 3 4 5 7 9 9 10 10 11 10 10 9 9 8 8 8 8 8 8 8 8 8 8 8 8 7 7 7 6 6 5 4 4
6 6 5 5 6 6 7 7 6 5 5 5 5 5 4 4 4 4 3 3 3 3 2 1 2 2 2 2 2 2 3 3 3 2 2 2 3 3 4 3 3 3 3 3 3 2 2 2 2 3 3 3 2 2 2 2 2 1 1 2 2 2 3 4 4 4 3 3 3 3 4 4 4 4 5 6 7 8 9 10 10 10 10 9 9 8 8 8 8 8 8 8 8 8 8 7 7 7 6 6 5 5 4
6 6 5 5 6 6 7 7 6 5 5 5 5 5 4 4 4 4 3 3 3 3 3 3 2 3 3 3 2 2 2 2 3 3 3 3 4 4 5 3 3 3 3 3 3 2 2 3 3 3 3 3 2 2 2 1 1 1 2 2 2 3 4 4 4 4 3 3 3 3 4 5 4 4 4 4 4 5 6 9 10 10 10 10 9 9 8 8 8 8 8 8 8 8 8 8 7 7 7 6 6 6 5
7 6 6 6 6 7 7 7 6 5 5 5 5 6 5 5 5 5 5 4 4 4 4 4 4 3 3 4 4 2 2 2 2 3 3 3 4 5 5 3 3 2 3 3 3 3 3 3 4 3 3 3 3 2 2 1 1 2 3 2 2 3 4 4 4 4 3 3 3 4 4 5 4 4 4 4 3 3 4 6 8 10 10 10 10 9 9 9 8 8 8 8 8 8 8 8 8 7 7 7 7 6 6
7 6 6 6 7 7 7 7 6 6 6 6 6 7 7 7 6 6 6 5 5 4 4 5 4 3 2 2 2 2 1 1 1 2 3 3 4 4 3 3 2 3 2 3 3 3 4 3 3 3 3 3 3 3 2 2 2 2 3 3 3 3 4 4 4 4 2 3 4 4 5 4 4 4 3 3 3 3 3 4 6 8 9 10 10 10 9 9 9 8 8 8 8 8 8 8 8 8 8 7 7 7 7
7 6 5 6 7 7 7 7 7 6 6 7 7 8 8 8 8 7 6 5 5 4 3 3 3 4 3 2 1 1 1 0 0 1 3 4 3 3 3 3 3 3 2 2 3 3 4 3 3 3 3 3 3 3 2 2 2 2 2 3 3 3 3 3 3 2 2 3 4 4 5 4 4 3 3 2 2 2 2 2 3 4 6 8 9 9 9 9 9 9 8 8 8 9 9 9 9 9 8 8 8 8 7
8 7 6 6 6 7 7 8 7 6 6 6 6 6 6 7 7 7 7 6 5 4 3 2 2 2 3 2 1 0 1 0 0 2 4 3 3 2 1 2 3 3 2 2 2 2 3 3 3 3 3 3 3 3 3 3 2 2 2 3 3 3 3 2 2 1 2 3 4 4 4 4 3 2 2 2 2 2 2 2 2 3 4 5 7 8 8 9 9 9 9 9 9 9 9 9 9 9 9 9 9 8 8
8 7 7 7 7 7 7 8 8 6 6 5 5 5 5 6 7 7 7 7 6 5 5 3 1 1 2 2 1 1 1 1 1 2 3 2 2 3 3 1 1 3 4 4 3 2 2 3 3 3 3 3 3 3 3 3 2 2 2 2 3 3 2 2 1 1 2 3 3 4 3 3 3 2 2 2 2 2 2 2 3 3 3 3 4 4 4 5 7 8 9 9 9 9 9 9 9 10 10 9 9 9 9
9 8 8 8 8 7 6 8 8 7 7 5 4 4 5 6 6 6 5 7 7 7 6 4 2 1 1 1 1 0 0 0 0 1 4 3 2 1 2 3 2 1 2 3 3 3 3 3 3 2 3 3 3 3 3 2 2 2 2 2 2 2 1 1 1 1 2 3 3 3 3 2 2 2 2 2 3 3 3 3 3 3 3 3 3 4 4 5 6 7 8 9 9 9 8 9 9 9 9 9 9 9 9
10 9 9 8 8 7 6 7 7 7 7 6 6 5 5 6 6 6 5 5 5 5 5 5 4 3 1 1 1 1 0 0 0 1 2 4 3 2 2 2 2 1 1 1 1 2 3 2 2 2 2 2 2 2 2 2 2 2 2 2 2 1 1 1 1 1 2 2 2 2 2 2 2 2 2 3 3 3 3 3 3 3 3 3 3 3 3 5 6 8 8 8 8 8 8 8 8 8 9 9 9 9 9
11 11 11 9 8 7 7 7 7 7 7 6 6 6 7 7 7 7 6 6 5 5 4 5 5 5 4 2 1 1 0 0 0 0 1 2 3 3 2 1 1 1 1 2 1 1 3 2 1 2 2 2 2 2 2 2 2 1 1 2 1 1 1 1 1 1 2 2 2 1 1 1 2 2 2 3 3 3 3 3 3 3 3 3 3 3 2 4 6 7 6 7 7 7 7 7 7 7 7 8 8 8 9
12 12 12 10 9 8 8 8 8 7 6 5 5 6 7 9 9 8 8 8 8 7 6 5 5 6 5 4 3 2 1 0 0 0 0 1 2 3 4 2 2 1 1 1 1 2 3 2 1 2 4 2 2 2 2 2 2 2 1 1 1 1 1 1 0 1 2 1 0 0 1 1 1 2 2 2 2 2 2 3 3 3 3 2 3 3 3 4 5 5 4 5 6 6 6 7 6 6 6 7 7 8 8
12 12 11 11 10 10 9 9 8 8 7 6 5 6 7 7 8 9 9 9 10 9 8 7 6 6 5 5 5 3 2 1 1 1 0 1 1 0 2 3 3 2 1 0 2 3 2 1 0 1 2 2 1 1 1 2 2 2 1 1 1 1 1 1 0 1 1 0 0 0 0 0 1 2 2 2 2 2 2 2 3 3 3 2 3 3 3 3 3 3 3 3 4 5 7 8 8 8 7 7 8 8 8
11 12 12 11 11 11 10 9 9 9 8 7 6 6 6 6 7 7 8 8 9 9 8 7 7 5 3 4 5 5 3 2 1 1 1 0 1 1 1 2 3 3 3 3 3 2 1 1 1 1 2 2 1 1 2 2 3 2 2 1 1 1 1 1 1 1 1 1 1 1 0 1 1 1 1 1 2 2 2 2 2 2 2 2 2 2 2 3 3 3 2 2 2 4 9 10 10 9 9 9 9 9 9
11 11 13 12 12 12 11 10 9 9 8 8 7 6 5 6 6 7 7 9 9 9 9 7 6 5 3 3 4 4 4 4 3 1 1 1 1 2 2 0 0 1 2 3 3 3 2 2 2 2 1 2 2 1 1 2 3 3 2 2 2 2 2 2 1 1 1 1 1 0 0 1 1 1 1 1 1 2 2 2 2 2 2 2 2 2 2 3 4 4 3 3 4 7 11 11 11 11 10 10 10 10 10
12 12 12 12 11 11 11 10 10 9 8 8 7 6 6 6 7 7 7 8 8 8 7 6 5 5 5 4 4 4 4 5 4 3 2 1 1 2 1 2 3 3 4 2 2 2 3 2 2 2 2 1 1 3 2 1 2 2 3 3 2 2 2 2 1 1 1 1 0 0 0 0 1 1 0 1 1 1 1 2 2 2 2 2 2 2 3 5 6 6 7 8 9 10 11 11 11 11 11 11 11 11 11
12 12 12 12 11 11 11 10 10 9 7 8 7 6 6 6 6 5 5 5 6 6 5 5 4 4 4 5 5 5 5 5 5 4 3 2 1 0 0 2 3 4 4 4 3 2 2 3 3 3 3 3 2 1 2 2 2 2 2 3 3 3 2 2 1 1 1 1 1 0 0 0 1 1 0 0 0 1 1 1 2 2 2 2 2 2 3 3 4 5 6 7 9 11 11 11 11 11 11 11 12 12 12
13 13 11 11 11 11 10 10 9 9 7 7 7 6 5 5 5 5 5 4 4 4 3 3 3 3 3 4 4 5 4 5 4 4 3 3 2 2 1 2 2 3 4 4 3 3 3 2 2 2 3 3 3 2 2 2 2 3 2 2 2 2 2 2 2 2 2 2 2 1 1 1 1 0 0 0 0 0 0 1 1 1 1 1 2 2 2 2 3 3 4 5 8 10 11 11 11 11 12 12 12 13 13
Wind_Direction
133 129 128 129 131 132 132 132 130 128 126 125 123 122 119 115 108 103 99 93 88 83 83 89 92 91 85 80 76 73 72 70 67 62 58 55 53 52 52 50 50 52 56 63 67 70 70 69 69 71 75 73 71 67 61 51 42 31 21 12 358 339 321 309 310 320 348 342 338 340 357 70 115 130 135 153 189 226 258 297 19 40 41 22 353 332 325 323 322 321 323 346 1 346 309 296 292 290 288 307 333 338 332
133 131 131 133 134 134 133 131 129 127 126 124 121 117 112 106 100 96 93 90 87 84 84 90 90 87 82 76 71 66 63 63 61 58 55 53 52 52 52 51 52 55 61 68 71 71 70 68 67 69 73 70 67 64 59 50 41 30 19 5 347 328 312 317 327 339 351 348 347 353 9 56 84 101 120 146 183 235 290 20 63 68 67 46 358 339 339 339 338 341 351 15 24 20 354 310 295 290 285 327 38 355 325
135 134 135 136 136 134 131 128 126 124 123 120 114 107 98 94 94 94 94 93 94 95 96 93 89 85 80 74 68 63 59 58 57 55 54 53 53 53 52 51 54 59 66 71 72 71 70 67 66 66 69 65 62 57 51 44 36 27 18 1 344 329 314 325 342 357 0 359 0 8 22 49 65 73 76 67 42 23 22 49 71 88 103 97 28 7 8 4 1 2 9 25 31 33 40 21 333 298 275 123 124 140 303
138 138 138 138 137 135 131 128 126 123 121 115 108 103 97 99 104 106 108 106 108 110 106 94 87 82 78 72 67 62 58 56 55 54 54 54 54 54 53 54 58 64 70 74 74 72 66 63 62 63 64 61 57 51 41 32 24 19 15 359 340 326 317 343 359 7 7 7 9 16 29 45 52 54 49 40 33 32 36 42 52 67 78 61 43 37 33 26 17 9 3 28 43 49 52 40 9 346 348 27 46 47 34
142 142 141 141 139 137 135 134 132 129 121 113 109 111 115 116 117 118 119 116 112 106 95 87 82 78 75 72 68 64 61 59 57 56 54 54 54 54 55 57 63 70 76 78 77 75 71 63 60 60 60 58 54 47 34 22 15 11 4 350 333 329 343 0 8 10 11 10 13 19 30 46 50 47 43 38 37 40 45 44 44 43 40 39 44 48 47 35 18 3 359 32 45 45 43 37 29 21 15 22 29 32 32
145 145 145 145 144 144 144 144 142 137 129 127 132 143 146 146 139 129 121 115 108 99 90 82 78 75 74 72 70 67 65 62 60 57 55 54 54 55 57 62 69 76 82 83 81 78 75 65 59 58 55 54 50 43 29 15 8 2 351 342 331 334 351 7 12 11 12 12 15 21 30 46 49 47 43 42 44 48 53 49 44 38 34 35 43 52 56 47 27 9 6 35 43 42 40 38 35 30 23 25 30 34 38
149 149 149 149 150 151 153 156 154 148 142 148 155 160 160 156 147 132 116 107 101 95 90 86 82 78 76 74 72 70 68 65 62 58 55 54 54 57 61 68 76 83 87 87 83 79 74 67 63 58 51 49 46 39 23 8 0 352 337 326 331 339 352 4 9 11 13 14 18 25 35 47 51 51 49 49 50 52 53 50 47 43 39 39 44 52 62 60 50 38 34 42 44 46 47 45 42 37 30 31 39 48 52
152 151 152 152 153 155 158 161 158 148 140 146 150 153 152 145 132 116 106 101 98 95 92 89 85 82 79 76 74 72 69 65 61 58 55 55 57 62 67 75 83 89 91 88 83 77 71 67 62 57 46 44 39 32 16 2 352 340 324 314 319 330 345 1 7 9 13 16 24 35 45 52 55 55 54 53 53 52 51 48 46 45 43 43 45 48 53 59 60 58 54 52 51 51 51 49 46 40 30 30 39 49 56
153 152 152 151 152 155 160 160 153 139 125 138 140 138 133 121 108 99 97 97 96 95 93 91 87 83 80 77 74 71 68 64 60 58 57 58 62 68 74 82 88 91 92 88 83 76 69 66 61 54 43 41 34 26 13 357 340 327 314 306 309 321 343 360 6 8 12 17 34 49 58 59 58 57 56 55 53 51 47 45 44 45 46 48 48 48 47 55 62 66 67 61 58 55 54 53 50 44 31 30 37 46 52
155 152 149 148 149 152 158 153 137 113 93 119 122 118 111 102 94 91 91 93 94 94 93 90 86 82 78 75 72 69 65 62 60 59 59 63 68 74 81 87 91 93 92 88 82 76 70 67 61 52 42 38 30 20 9 350 330 318 310 301 315 338 352 0 5 7 9 24 47 63 69 66 62 58 55 53 51 48 45 43 43 44 47 50 53 53 51 56 62 66 67 62 59 56 54 55 54 50 38 33 36 42 47
155 152 147 145 146 149 154 144 136 132 134 126 116 111 105 99 95 92 92 94 94 94 92 88 84 80 76 72 68 65 62 60 60 60 63 68 74 80 86 90 93 94 92 88 83 77 71 68 60 51 39 34 25 15 3 342 327 320 309 304 322 346 356 359 3 8 15 43 64 72 74 69 64 59 55 52 49 46 43 41 42 44 47 50 50 51 51 54 56 57 57 55 52 50 49 50 50 48 42 36 37 40 43
155 150 145 144 145 148 153 142 140 144 152 133 118 110 106 102 99 97 96 96 96 94 92 87 82 77 73 68 65 63 61 60 61 64 68 73 79 85 89 92 94 94 91 87 82 77 71 66 58 48 37 29 20 11 356 339 328 319 303 318 333 346 355 357 2 15 38 65 74 77 75 69 63 57 53 51 50 49 47 46 46 47 50 51 50 48 49 50 50 50 48 48 47 45 44 44 44 44 42 39 38 39 41
151 147 142 142 144 149 150 144 144 145 146 129 118 111 107 105 103 101 101 101 99 96 92 87 81 76 71 67 65 63 62 63 65 68 72 78 84 88 92 93 94 93 90 85 80 74 65 61 55 47 36 29 19 8 352 342 330 318 305 336 345 349 351 352 2 31 67 79 81 78 74 67 60 55 53 54 56 57 58 55 54 55 57 56 52 48 46 47 48 47 45 45 44 43 43 42 41 40 40 40 41 42 43
145 142 138 140 144 148 148 145 143 139 134 123 116 111 108 107 105 105 105 104 102 98 93 87 81 77 73 71 69 67 66 66 68 71 76 81 86 90 93 94 93 90 87 83 77 67 60 59 55 47 35 28 16 5 356 348 333 323 326 346 350 347 344 346 9 62 83 82 79 75 70 66 61 58 57 61 65 69 70 67 65 65 65 62 58 52 47 47 47 46 43 43 42 42 43 42 42 41 41 41 41 41 42
138 135 135 139 143 145 146 145 141 135 126 119 115 112 109 108 107 106 107 106 103 99 94 88 83 80 78 77 74 71 68 67 69 72 76 82 87 91 93 93 91 88 85 78 70 61 60 56 54 47 36 27 16 4 356 349 336 335 348 350 348 343 339 351 46 79 81 77 74 72 71 70 67 64 64 67 71 74 75 71 67 65 64 61 58 53 49 48 46 45 43 42 42 42 42 42 41 41 40 40 40 40 40
133 133 137 140 142 143 143 144 142 136 126 120 117 114 111 108 107 106 106 104 103 100 96 91 87 85 84 83 80 76 70 67 67 70 74 80 86 90 92 90 87 84 80 71 62 59 58 55 52 45 38 27 16 4 359 350 342 345 355 351 345 341 344 34 73 80 76 74 75 76 78 78 76 73 69 69 69 69 67 64 60 58 57 55 53 49 47 47 46 45 43 42 41 41 41 40 39 38 37 36 36 37 37
134 136 141 141 141 142 142 143 141 136 128 123 120 117 112 106 101 100 99 100 100 99 97 93 90 88 89 87 84 79 70 66 64 66 69 76 82 86 87 85 82 77 68 64 59 56 57 55 51 45 37 27 16 4 1 350 350 355 359 353 348 351 28 71 79 79 77 80 82 85 85 83 80 75 69 64 62 60 59 57 56 54 53 52 50 48 46 45 44 43 41 39 38 38 37 36 35 34 32 31 31 31 32
139 142 144 142 141 141 141 141 139 135 129 125 122 118 109 100 92 88 87 90 92 94 93 91 90 89 89 88 86 83 75 69 64 62 62 71 76 79 81 78 75 69 59 59 56 52 53 53 50 45 39 27 15 3 2 353 0 5 4 359 1 26 68 81 82 82 82 85 87 87 85 82 77 72 66 62 58 56 55 55 54 53 52 51 49 47 44 43 42 40 38 36 35 34 33 32 31 30 29 27 26 26 26
143 145 145 143 141 140 140 139 138 136 133 125 116 108 99 92 86 82 80 82 84 87 89 89 88 88 87 86 85 82 80 78 74 67 59 62 65 68 72 71 66 60 57 54 52 50 51 50 48 44 40 26 14 5 3 3 10 13 12 12 26 58 80 85 85 86 87 87 85 83 80 76 72 69 64 61 58 56 55 54 53 52 51 50 48 46 44 42 39 37 35 32 30 29 28 27 27 26 26 23 22 22 22
138 141 142 138 136 134 135 135 134 131 124 107 93 86 86 85 82 79 78 78 80 83 85 86 85 83 83 83 81 78 77 78 78 74 66 59 57 59 63 64 62 58 54 50 50 51 50 49 46 43 37 25 14 8 5 12 19 21 21 27 44 68 83 87 89 88 87 84 81 78 75 72 69 66 63 60 57 55 54 52 51 50 48 47 46 44 43 41 38 35 32 29 26 24 23 22 22 22 22 21 20 19 18
113 114 118 115 113 112 113 114 112 106 95 85 76 68 67 70 73 74 75 74 76 79 81 81 78 74 77 77 75 72 70 75 75 73 68 61 57 57 59 61 62 60 49 47 50 52 49 48 47 43 36 26 17 11 8 23 28 29 29 37 51 69 83 88 89 88 86 81 78 75 74 71 69 65 62 59 56 53 51 50 48 47 45 44 42 40 40 39 38 35 31 27 24 21 19 18 18 18 19 18 18 17 17
92 84 76 75 76 75 70 68 73 78 79 80 77 71 62 63 66 69 71 70 72 75 76 72 66 60 64 71 70 68 62 70 75 73 67 61 58 58 60 59 61 60 49 47 49 51 48 47 45 43 38 28 19 14 14 32 35 36 36 42 53 66 79 85 87 85 82 79 76 74 73 71 68 65 61 58 54 50 47 47 46 44 42 40 37 36 37 38 37 35 32 27 23 19 17 15 15 15 16 17 17 16 16
93 93 86 81 80 78 70 60 64 72 79 83 84 82 74 73 72 72 72 72 73 73 72 67 59 51 54 66 68 65 57 62 73 79 75 65 61 60 60 58 58 57 52 49 48 47 45 45 45 44 39 28 20 17 20 37 40 41 41 45 52 62 72 79 82 82 79 77 75 73 73 71 68 64 61 57 53 49 44 44 43 41 40 37 35 33 33 35 36 35 33 29 24 20 16 14 14 15 15 16 16 16 16
102 107 106 107 111 111 98 86 83 83 87 91 93 93 86 83 83 82 80 79 77 77 75 72 64 55 54 66 68 65 56 55 61 71 81 75 69 64 61 59 57 55 54 51 48 46 45 44 44 43 39 28 21 19 25 42 45 46 45 47 52 58 65 71 76 77 77 75 74 73 71 70 67 63 59 56 52 47 43 42 40 39 38 36 34 31 30 32 34 35 34 30 26 21 17 16 15 15 16 17 17 17 17
114 122 127 127 132 131 119 109 102 99 98 102 103 103 100 96 94 93 91 88 85 83 80 77 72 64 62 69 67 62 55 54 53 54 60 74 77 73 66 61 58 56 55 52 50 48 46 43 42 42 37 28 22 21 27 47 50 50 49 50 53 56 61 66 70 72 73 72 71 69 68 67 65 62 58 55 51 47 42 40 39 38 37 36 34 32 30 31 33 34 34 31 27 23 19 17 16 17 17 19 18 18 19
127 134 143 141 140 140 134 120 114 111 107 111 112 112 111 108 104 101 99 97 94 92 88 84 75 67 68 72 68 60 51 53 53 50 44 58 73 80 74 65 59 55 55 54 52 50 47 43 42 40 35 30 25 24 28 51 55 55 53 53 55 56 59 62 65 68 69 68 67 65 64 63 62 60 57 54 51 47 42 40 39 38 38 37 36 34 32 33 34 35 34 32 28 24 21 19 19 19 20 20 20 20 20
137 146 152 149 143 141 142 131 123 118 113 116 118 119 119 118 113 107 103 103 101 98 96 90 80 72 68 72 70 64 51 51 51 50 45 47 58 72 80 71 62 54 53 54 52 50 48 45 42 38 32 30 28 25 23 54 58 58 57 57 57 57 58 60 62 64 66 65 64 62 60 58 58 57 56 54 51 48 44 41 39 39 39 39 38 36 35 35 36 36 35 32 29 25 22 21 21 21 22 22 22 22 21
149 155 154 154 147 144 148 142 131 124 122 124 124 124 126 125 121 116 111 109 107 105 103 96 90 82 74 73 72 69 56 54 51 49 45 46 48 56 77 75 67 56 50 53 53 51 45 44 42 38 31 31 30 27 21 53 59 61 61 60 60 59 59 59 59 60 62 62 62 60 58 56 54 53 52 52 51 49 45 42 41 40 41 40 40 38 37 37 37 36 35 33 30 26 24 23 24 24 24 24 23 23 22
159 163 155 156 154 151 154 151 141 133 133 132 132 133 136 133 130 126 120 118 114 108 105 100 94 87 82 77 74 71 65 64 58 52 45 49 44 45 62 73 70 59 47 51 54 54 48 44 41 39 37 34 30 26 24 45 58 63 64 63 62 61 60 59 58 58 59 60 59 59 58 56 53 51 50 50 50 49 47 44 42 42 41 42 41 39 38 38 37 36 35 33 30 28 26 26 27 27 26 25 25 24 22
170 167 157 158 158 158 156 157 151 143 140 138 138 142 151 142 138 135 132 123 114 107 100 97 90 84 82 80 74 69 66 76 71 60 48 48 43 42 51 64 66 59 50 48 49 51 50 48 44 41 41 36 32 29 28 35 54 63 67 66 64 63 62 61 60 58 57 58 59 59 58 57 55 53 51 50 50 50 48 46 44 43 43 42 42 40 38 37 37 36 35 34 32 30 29 29 30 30 29 27 26 24 23
174 169 161 161 163 164 158 155 152 147 146 145 147 150 158 148 141 140 140 134 127 120 112 107 100 93 88 80 74 67 55 74 76 69 55 48 43 41 43 54 60 58 47 40 35 34 37 45 45 42 38 36 35 34 32 31 48 61 69 68 66 65 63 62 61 60 60 60 60 60 60 59 58 57 56 54 53 51 49 47 46 44 43 43 42 40 38 36 36 35 34 34 33 33 33 33 33 32 31 28 26 25 23
172 169 165 166 172 173 162 154 153 154 155 150 149 149 151 141 137 137 135 133 132 131 128 121 114 107 99 86 75 61 30 68 80 77 63 51 43 39 37 46 53 52 34 36 35 31 19 34 42 43 37 39 39 38 35 33 36 50 64 68 69 67 66 64 63 62 62 62 62 62 62 62 61 60 59 57 55 53 51 49 47 45 44 42 41 39 37 35 34 34 34 33 34 36 36 36 35 34 32 29 27 24 24
172 171 172 175 178 177 163 159 159 161 162 152 145 140 133 124 121 119 114 104 100 102 108 109 108 105 101 95 85 62 28 49 80 84 70 55 42 34 28 41 46 44 27 43 44 33 15 32 44 47 41 46 43 38 35 34 33 37 49 63 68 69 68 67 66 65 64 64 63 63 63 63 62 62 60 58 57 54 52 49 47 45 43 42 40 38 36 35 34 33 33 34 35 37 39 38 37 35 32 29 27 25 24
175 175 178 181 180 176 167 168 167 164 160 150 142 136 130 115 105 101 102 95 86 78 80 87 89 90 93 98 91 72 44 41 69 84 79 59 40 27 24 41 44 42 38 51 52 38 15 36 47 50 43 48 44 39 35 36 34 34 37 51 62 67 69 69 68 67 65 64 64 64 64 64 63 62 60 59 56 54 51 49 46 45 42 41 39 37 35 34 33 33 33 34 36 39 40 40 38 36 32 29 27 26 27
176 177 178 182 180 177 175 172 166 158 154 143 137 132 130 120 111 105 104 102 94 84 78 83 84 82 82 89 86 74 54 44 62 75 79 63 39 20 28 39 41 42 52 55 51 41 33 43 46 47 47 49 45 39 35 34 33 34 35 44 52 59 65 66 67 67 66 65 65 64 64 63 62 61 60 58 55 53 50 47 45 43 41 40 38 36 34 33 31 31 31 33 36 39 41 41 40 37 33 31 29 29 30
178 178 178 180 181 181 181 173 161 153 149 140 133 129 128 126 124 122 118 112 104 97 90 85 85 85 82 82 79 72 54 56 64 68 70 63 41 22 35 35 32 39 64 60 52 46 56 54 47 42 47 47 42 35 31 27 29 34 38 38 43 48 52 58 59 61 64 64 64 64 63 63 62 60 59 56 54 51 49 46 44 42 40 38 37 35 32 31 29 28 28 29 32 36 40 41 40 38 35 33 32 32 32
180 179 179 181 181 180 180 172 160 152 147 142 137 135 134 136 138 137 133 125 119 116 110 92 84 84 85 85 82 74 50 62 70 71 62 53 39 30 37 30 29 39 64 62 55 56 71 61 46 34 38 33 31 29 23 22 27 33 33 34 37 40 41 40 44 49 55 59 61 62 63 62 61 60 58 55 52 50 47 44 42 40 38 37 35 33 31 29 27 25 24 24 27 30 34 37 38 37 36 35 34 34 34
180 180 181 182 180 178 177 172 162 152 147 145 145 146 145 146 146 144 138 133 130 127 116 98 86 79 76 83 84 76 44 64 79 83 69 49 38 33 26 17 27 45 64 52 51 62 79 65 44 29 26 25 27 23 7 22 29 30 24 31 33 34 36 35 31 30 35 45 52 57 59 59 59 58 56 54 51 48 44 42 40 38 36 35 33 32 29 27 25 23 21 20 21 22 26 30 33 35 35 35 35 35 34
181 181 182 181 181 180 177 168 160 154 149 151 153 154 151 148 147 144 137 135 133 130 118 113 100 81 67 75 77 69 45 62 81 90 85 68 54 37 6 359 14 43 66 61 60 61 71 55 36 26 22 21 17 11 7 27 30 26 21 26 27 28 28 29 26 22 20 24 32 41 51 54 55 54 54 52 49 46 42 39 36 34 33 32 31 30 28 26 23 21 18 16 16 17 19 22 27 30 32 33 33 33 33
185 183 183 181 181 180 171 160 156 154 151 153 155 156 153 148 148 146 137 130 123 114 112 122 114 98 71 73 73 67 41 56 75 86 82 77 65 40 353 352 4 28 50 67 70 64 55 43 32 25 19 10 1 1 22 29 27 24 20 22 21 20 20 23 20 17 12 12 13 20 30 40 44 46 48 48 46 43 40 36 32 30 28 28 28 27 26 23 21 19 17 14 13 13 13 16 19 23 26 28 29 30 30
187 185 184 181 180 175 162 159 158 157 155 155 156 156 158 155 155 153 145 131 115 92 59 104 117 121 118 98 88 81 52 49 65 79 79 75 67 43 356 358 9 23 35 57 67 66 54 42 31 22 11 358 359 12 28 28 26 25 24 23 21 19 22 26 23 18 12 12 8 6 7 19 24 28 34 38 38 37 35 31 27 24 23 22 23 23 23 21 19 17 15 12 11 10 10 11 13 16 18 19 22 24 25
187 185 184 180 176 169 162 163 162 161 157 156 157 160 164 165 163 158 150 139 125 99 48 53 98 123 134 129 118 107 97 62 59 70 82 79 71 54 21 20 22 26 30 48 59 63 58 49 39 25 8 7 18 25 28 25 26 29 29 26 24 24 29 33 30 24 20 20 18 13 7 11 14 16 20 22 24 24 23 20 18 16 15 16 16 17 18 17 15 13 12 10 9 8 7 8 9 10 10 10 11 14 16
186 184 183 178 172 166 163 164 164 161 157 157 158 162 167 167 162 155 150 140 129 112 75 46 69 104 123 128 132 130 120 98 72 64 83 89 82 66 51 42 34 28 26 40 49 55 52 50 47 48 60 48 37 29 21 25 29 32 32 29 29 31 39 40 38 34 33 33 33 31 27 19 15 15 17 17 16 14 12 8 7 6 7 8 8 10 12 11 9 8 7 6 5 4 4 4 5 4 3 1 0 0 2
185 182 181 175 168 163 163 164 164 162 157 157 158 161 163 158 151 147 144 136 129 121 101 54 51 82 113 126 141 146 136 131 121 103 90 93 89 75 60 49 39 31 29 38 42 45 45 44 43 45 54 54 47 33 20 26 30 33 35 38 41 45 49 46 43 41 40 41 44 45 43 38 26 20 20 19 16 13 9 4 2 1 360 360 1 2 4 3 2 1 360 360 359 359 359 0 0 359 357 354 351 349 349
183 180 178 168 162 160 165 166 164 161 159 156 156 155 151 147 146 145 141 132 126 124 119 85 54 57 86 117 140 150 145 143 138 129 107 93 85 78 66 53 42 36 38 38 37 37 41 42 42 41 43 45 43 37 28 33 37 41 48 49 53 54 55 50 47 43 41 43 48 52 52 48 41 32 26 22 19 14 8 5 3 3 1 359 357 356 355 355 354 353 352 352 353 353 353 354 355 354 352 347 344 342 339
180 176 173 164 162 163 166 166 164 162 159 155 153 153 150 151 152 151 145 136 127 123 124 115 87 63 57 72 93 115 125 132 129 120 102 91 82 75 68 56 47 43 45 38 32 30 37 41 41 40 38 36 34 30 27 39 51 65 61 56 55 58 59 52 48 45 42 44 49 55 56 53 47 40 34 28 22 14 7 6 7 8 7 4 360 356 352 350 348 346 344 344 344 345 346 347 347 347 345 342 339 337 334
178 174 172 167 165 165 165 167 165 163 159 157 157 159 161 164 165 162 157 148 140 133 133 128 116 90 64 58 58 65 86 112 118 110 95 80 74 72 71 63 52 47 50 39 30 29 36 41 41 39 33 29 25 21 16 19 43 69 73 68 64 62 64 56 51 46 43 48 54 58 59 56 51 44 39 34 26 16 7 5 7 9 9 8 5 1 357 352 347 342 339 337 337 337 338 338 339 338 338 336 334 332 330
177 174 172 167 165 163 164 168 168 165 164 164 167 170 174 174 174 173 167 157 150 143 138 131 125 116 94 61 42 37 52 78 113 114 106 81 64 56 60 55 44 37 42 38 34 33 38 45 46 42 32 25 22 17 10 13 43 70 83 83 74 67 65 61 54 48 43 53 58 60 59 57 53 48 41 35 26 17 9 5 6 7 7 7 6 4 2 357 351 344 338 333 331 330 330 330 330 330 329 329 328 328 327
177 173 168 164 163 164 165 170 171 170 171 173 176 179 179 176 174 171 165 152 143 134 121 114 114 117 117 99 49 2 2 357 65 99 98 92 73 41 14 20 21 18 15 30 36 38 38 46 50 47 36 29 22 17 11 23 49 70 82 85 79 71 65 63 57 45 38 54 59 60 59 57 53 49 42 33 27 18 10 5 2 2 1 2 2 2 1 357 352 346 339 332 328 325 324 324 323 322 322 322 322 322 322
177 172 168 165 166 168 168 173 174 176 178 181 181 178 173 168 163 157 148 140 133 124 106 86 82 101 119 117 129 231 271 259 98 84 77 90 102 105 47 10 3 360 352 359 20 39 43 48 50 48 40 32 27 20 15 29 47 63 72 78 79 74 63 58 46 31 39 54 57 57 56 54 51 48 43 33 26 19 10 3 359 357 355 355 356 357 356 353 349 344 339 333 328 324 321 319 317 316 315 316 316 317 318
178 173 170 169 171 173 172 175 176 177 179 178 169 156 151 152 151 148 144 145 144 139 128 112 84 66 97 115 137 182 224 241 130 104 98 101 121 136 140 117 31 2 349 342 348 13 39 40 43 42 34 28 25 22 15 24 39 51 55 70 74 70 56 42 22 19 48 56 55 52 51 49 45 40 36 27 21 15 6 2 358 355 354 351 350 349 347 344 341 339 338 335 332 328 324 318 315 312 312 312 312 313 314
181 175 171 172 174 176 174 175 176 177 174 167 154 142 143 149 152 155 156 158 158 157 149 140 129 96 59 93 102 114 238 254 174 123 122 130 127 113 119 104 86 24 348 345 340 344 7 9 8 13 24 16 15 12 3 10 28 41 39 55 61 59 40 18 1 10 54 57 53 47 44 40 34 28 28 23 17 10 4 1 358 354 350 347 343 340 339 337 338 340 342 341 338 335 330 323 317 313 311 310 311 312 313
181 176 173 175 175 174 170 175 178 177 172 166 160 155 155 158 162 165 168 168 167 165 157 147 140 131 93 84 80 77 332 198 141 117 120 135 126 92 46 72 101 146 152 115 326 310 313 331 335 337 356 11 6 355 344 1 17 30 31 44 44 29 348 335 329 349 55 54 48 40 35 27 22 18 23 19 13 5 360 358 354 350 346 342 340 338 336 338 344 349 351 349 345 340 337 330 324 318 313 313 312 313 313
182 178 176 177 174 171 170 177 179 179 177 171 166 164 164 169 170 171 173 174 174 172 165 157 145 137 130 127 125 128 212 155 95 108 142 148 138 126 99 95 122 160 185 125 134 243 262 263 283 299 299 339 350 339 329 1 1 357 15 32 21 344 322 310 314 11 62 61 52 36 30 13 6 9 21 14 6 358 356 354 350 346 345 343 341 340 338 341 350 355 354 351 350 348 341 338 333 329 323 320 318 317 317
183 179 178 178 175 171 172 175 177 178 180 175 169 167 169 173 175 177 178 179 178 174 169 167 161 154 146 150 149 149 160 170 138 128 165 211 163 143 137 130 104 63 23 51 146 208 235 245 275 292 289 325 348 349 329 343 340 339 359 26 12 344 326 304 332 72 72 73 61 40 38 8 3 7 14 2 357 354 356 352 351 350 350 349 350 351 351 352 354 353 345 341 341 343 345 350 350 346 340 335 331 328 326
182 180 181 179 176 172 172 174 175 177 179 177 175 175 176 178 179 180 180 180 177 174 172 172 175 174 160 155 153 150 142 152 162 156 134 283 298 264 141 142 140 132 99 215 230 227 229 207 80 348 289 319 354 9 303 313 318 325 334 357 356 340 320 312 56 86 82 65 15 5 8 39 28 20 5 353 354 356 356 358 358 358 358 358 358 359 358 354 349 342 335 328 329 339 357 6 6 2 358 352 346 341 337
182 181 182 181 177 173 170 174 177 179 181 182 182 181 181 179 177 177 178 179 180 181 182 176 176 176 162 148 145 143 134 133 132 127 107 49 1 1 80 154 163 167 166 178 189 202 224 142 117 127 271 301 302 235 266 299 306 308 309 315 319 320 319 322 348 33 54 38 28 14 332 67 58 33 352 353 358 4 3 7 7 6 6 7 6 3 2 357 354 349 337 332 338 359 14 15 12 8 3 358 353 348 343
183 182 182 181 177 174 173 176 178 180 183 185 184 182 180 177 176 177 179 182 185 186 186 177 171 165 156 140 132 131 134 142 147 153 149 92 47 36 32 15 203 153 133 151 151 149 145 114 128 153 200 319 313 295 262 318 320 317 314 309 315 327 329 330 339 356 9 18 17 16 8 77 75 51 349 356 6 15 16 16 14 12 12 10 7 4 5 6 7 6 0 10 20 24 21 15 11 7 1 357 352 348 342
183 182 181 180 178 177 177 178 179 181 183 183 181 178 179 181 181 180 180 183 184 184 182 180 173 165 157 146 133 129 144 156 160 161 162 121 46 38 41 46 47 49 54 62 97 132 140 145 158 160 132 124 298 302 324 328 321 313 311 311 319 334 338 330 326 334 350 325 326 344 21 102 105 97 24 8 16 25 26 21 16 15 15 11 7 6 11 14 13 11 10 20 27 28 20 15 9 4 358 353 348 344 339
182 181 181 179 178 177 178 179 181 181 181 180 178 177 180 180 177 171 167 172 173 175 179 182 175 163 158 152 145 143 154 164 167 163 148 134 107 52 76 76 69 65 66 54 56 78 116 140 151 152 141 150 173 245 293 302 306 304 295 303 317 331 334 309 286 269 263 257 248 229 218 121 109 97 8 6 28 39 31 21 16 13 13 10 6 6 10 9 8 6 4 11 20 22 17 13 7 1 355 350 344 340 336
182 180 180 179 178 177 177 179 181 181 178 179 178 177 174 168 159 152 150 148 149 155 170 175 167 161 164 153 146 144 148 158 168 173 157 142 144 149 130 90 81 76 74 61 54 56 71 80 107 133 141 141 142 155 201 278 311 323 303 305 319 331 325 301 280 261 251 246 235 217 192 144 119 114 253 240 119 85 62 31 18 10 5 5 1 1 6 5 4 360 354 3 15 19 15 10 4 358 352 346 341 336 333